Tracking 30696 objects as of 16-Jun-2025
HD Live streaming from Space Station
objects crossing your sky now

STARLINK-6332

Track STARLINK-6332 now!
10-day predictions
STARLINK-6332 is classified as:


NORAD ID: 57339
Int'l Code: 2023-099M
Perigee: 565.3 km
Apogee: 567.2 km
Inclination: 43.0 °
Period: 95.8 minutes
Semi major axis: 6937 km
RCS: Unknown
Launch date: July 16, 2023
Source: United States (US)
Launch site: AIR FORCE EASTERN TEST RANGE (AFETR)
Your satellite tracking list
Your tracking list is empty




NASA's NSSDC Master Catalog

Two Line Element Set (TLE):
1 57339U 23099M   25166.57358098  .00000000  00000-0  15097-4 0  9991
2 57339  43.0027 260.5560 0001320 271.4026  88.6666 15.02530839105931
Source of the keplerian elements: AFSPC